Hourly Data Report for October 10, 2016

All times are specified in Local Standard Time (LST). Add 1 hour to adjust for Daylight Saving Time where and when it is observed.

RANKIN INLET A
NUNAVUT

62°48'38.000" N
92°06'53.000" W
32.30 m
2303405
71083
YRT

Download Data

Hourly Data (October 2016)
Hourly Data Report for October 10, 2016
Temp Definition
°C
Dew Point Temp Definition
°C
Rel Hum Definition
%
Wind Dir Definition
10's deg

Wind Spd Definition
km/h
Visibility Definition
km
Stn Press Definition
kPa
Hmdx Definition


Wind Chill Definition


Weather Definition


TIME
00:00 Legend Double Dagger -4.3 -5.6 91 30 16 24.1 101.75   -10 Clear
01:00 Legend Double Dagger -4.0 -5.3 91 29 17 24.1 101.73   -10 LegendNANA
02:00 Legend Double Dagger -4.4 -5.4 93 30 17 24.1 101.71   -10 LegendNANA
03:00 Legend Double Dagger -4.8 -5.8 93 30 18 24.1 101.68   -11 Clear
04:00 Legend Double Dagger -5.2 -6.4 91 32 16 24.1 101.63   -11 LegendNANA
05:00 Legend Double Dagger -5.8 -7.0 91 31 13 24.1 101.63   -11 LegendNANA
06:00 Legend Double Dagger -5.7 -6.8 92 31 19 24.1 101.60   -12 Mainly Clear
07:00 Legend Double Dagger -4.8 -5.9 92 31 18 24.1 101.58   -11 LegendNANA
08:00 Legend Double Dagger -5.0 -5.5 96 31 14 8.1 101.55   -10 Snow Grains
09:00 Legend Double Dagger -4.3 -5.1 94 30 18 9.7 101.52   -10 Snow Grains
10:00 Legend Double Dagger -3.5 -4.5 93 30 16 8.1 101.51   -9 Snow Grains
11:00 Legend Double Dagger -2.9 -3.9 93 31 19 8.1 101.47   -9 Snow Grains
12:00 Legend Double Dagger -2.7 -4.3 89 30 20 16.1 101.43   -9 Snow Grains
13:00 Legend Double Dagger -2.9 -4.8 87 31 20 24.1 101.40   -9 LegendNANA
14:00 Legend Double Dagger -2.7 -5.4 82 32 27 16.1 101.39   -10 Snow Grains
15:00 Legend Double Dagger -2.5 -5.8 78 31 23 24.1 101.40   -9 Mostly Cloudy
16:00 Legend Double Dagger -3.2 -5.2 86 31 24 24.1 101.40   -10 LegendNANA
17:00 Legend Double Dagger -3.6 -7.6 74 32 30 24.1 101.45   -11 LegendNANA
18:00 Legend Double Dagger -3.7 -7.5 75 33 26 24.1 101.46   -11 Mostly Cloudy
19:00 Legend Double Dagger -4.1 -8.3 73 32 27 24.1 101.46   -11 Snow Showers
20:00 Legend Double Dagger -4.9 -8.8 74 31 21 24.1 101.45   -12 Snow Showers
21:00 Legend Double Dagger -4.4 -8.9 71 33 21 24.1 101.43   -11 Mostly Cloudy
22:00 Legend Double Dagger -4.7 -8.5 75 31 14 24.1 101.41   -10 LegendNANA
23:00 Legend Double Dagger -5.0 -8.3 78 29 14 24.1 101.41   -10 LegendNANA

Notes on Data Quality.

Legend

  • E = Estimated
  • M = Missing
  • NA = Not Available
  • ‡ = Partner data that is not subject to review by the National Climate Archives
Date modified: